Location: Stoke Bliss
(52.2667°N, 2.5167°W)
Time: 19:25:43
(UTC+00:00)

Cosmos 1943 Rocket - Pass Details

Date: 03 March 2021
Orbit: 811 x 844 km, 71.0° (Epoch: 15 April)

Event Time Altitude Azimuth Distance (km) Brightness Sun altitude
Rises 22:25:02 0° 328° (NNW) 3,416 6.3 -38.3°
Reaches altitude 10° 22:27:30 10° 326° (NNW) 2,477 5.3 -38.5°
Enters shadow 22:30:02 28° 322° (NW) 1,556 4.0 -38.8°
